Location: Vinland
(47.7731°N, 122.6974°W)
Time: 02:52:58
(UTC+00:00)

S-56A Canister/Altair - Pass Details

Date: 31 March 2023
Orbit: 639 x 2492 km, 38.9° (Epoch: 31 May)

Event Time Altitude Azimuth Distance (km) Brightness Sun altitude
Rises 03:06:52 0° 250° (WSW) 4,729 12.7 -5.6°
Reaches altitude 10° 03:09:41 10° 246° (WSW) 3,969 12.1 -6.1°
Maximum altitude 03:20:24 57° 172° (S) 2,454 9.9 -7.8°
Enters shadow 03:34:14 11° 100° (E) 5,051 11.0 -10.1°
